Temperature
17 17 17 16 16 16 16 16 16 15 15 15 15 14 14 14 14 13 13 13 13 13 13 13 13 13 13 13 13 13 13 13 12 12 12 12 12 12 12 12 11 11 11
16 16 16 16 16 16 16 15 15 15 15 15 14 14 14 14 14 13 13 13 13 13 13 13 13 13 13 13 13 13 12 12 12 12 12 12 12 12 11 11 11 11 11
15 15 15 15 15 15 15 15 15 14 14 14 14 14 13 13 13 13 13 13 13 12 12 12 12 12 12 12 12 12 12 12 12 12 12 12 11 11 11 11 11 11 10
15 15 15 15 15 14 14 14 14 14 14 13 13 13 13 13 13 13 13 12 12 12 12 12 12 12 12 12 11 12 12 12 11 11 11 11 11 11 11 11 10 10 10
15 14 14 14 14 14 13 13 13 13 13 13 13 12 12 12 12 12 12 12 12 12 12 12 12 12 11 11 11 11 11 11 11 11 11 11 11 10 10 10 10 10 9
14 14 14 14 14 13 13 13 13 12 12 12 12 12 12 12 12 12 12 12 12 12 12 11 11 11 11 11 10 10 10 10 10 10 10 10 10 10 9 9 9 9 9
14 14 14 14 14 13 13 13 13 13 12 12 12 12 12 12 12 11 11 11 11 11 11 11 11 11 11 10 10 10 9 9 9 9 9 9 9 9 8 8 8 8 8
14 14 14 14 13 13 13 13 13 13 13 12 12 12 11 12 12 12 12 12 12 11 11 11 11 11 10 10 10 9 9 8 8 8 8 8 8 7 7 7 7 7 7
14 14 13 13 13 13 13 13 13 12 12 12 12 12 11 11 12 12 12 12 11 11 11 11 10 10 10 9 9 9 8 8 7 7 6 6 6 6 6 6 6 5 5
14 13 13 13 13 13 12 12 12 12 12 12 11 11 11 11 11 11 11 11 11 11 11 10 10 10 9 9 8 8 7 7 6 6 5 5 5 5 5 4 4 4 4
13 13 13 13 13 12 12 12 12 12 12 11 11 11 11 10 10 10 10 10 11 11 10 10 10 9 9 8 8 7 6 6 6 5 4 4 3 3 3 4 4 4 4
13 12 12 12 12 12 12 12 12 11 11 11 11 10 10 10 10 10 9 10 10 10 10 9 9 8 8 7 7 6 6 5 5 4 3 3 3 3 3 3 3 3 3
12 12 12 12 11 11 11 11 11 11 11 11 10 10 10 10 10 9 9 9 9 9 8 8 8 8 7 7 6 6 5 4 4 3 3 3 2 2 3 3 2 2 2
11 11 11 11 11 10 10 10 10 10 10 10 10 10 9 9 9 9 8 8 8 8 8 7 7 7 7 6 6 5 4 4 3 3 2 2 2 2 2 2 2 2 2
9 9 9 9 9 10 10 10 10 9 9 9 9 9 9 9 8 8 8 8 7 7 7 7 7 6 6 5 5 4 4 3 2 2 2 1 1 1 1 1 1 1 1
8 8 8 8 8 8 9 9 9 9 8 8 8 8 8 8 8 7 7 7 7 6 6 6 6 5 5 4 4 3 3 2 1 1 1 1 1 1 1 0 0 -0 -0
7 7 7 7 8 8 8 8 8 8 7 7 7 7 7 7 6 6 6 6 6 5 5 5 4 4 4 3 3 2 2 1 1 1 0 0 -0 -0 -1 -1 -1 -1 -1
7 7 7 7 7 7 7 7 7 7 6 6 6 6 6 6 6 6 5 5 5 4 4 4 3 3 3 2 2 1 1 0 0 -0 -0 -1 -1 -1 -2 -2 -2 -2 -2
6 6 6 6 6 6 6 6 6 5 5 5 5 5 5 5 5 4 4 4 3 3 3 3 2 2 2 1 1 0 -0 -0 -1 -1 -1 -2 -2 -2 -3 -3 -3 -3 -3
5 5 5 5 5 5 5 5 4 4 4 4 4 4 3 3 3 3 2 2 2 2 2 2 1 1 1 0 -0 -1 -1 -1 -2 -2 -3 -3 -3 -3 -3 -3 -3 -3 -3
4 4 4 4 4 4 4 3 3 3 3 3 3 2 2 2 1 1 1 1 1 1 1 0 0 -0 -1 -1 -2 -2 -2 -3 -3 -3 -3 -3 -3 -3 -3 -3 -3 -3 -3
3 3 3 3 3 3 2 2 2 2 2 2 1 1 1 0 0 -0 -0 -0 -0 -0 -1 -1 -1 -2 -2 -3 -3 -3 -4 -4 -4 -4 -4 -3 -4 -4 -4 -4 -3 -3 -3
2 2 2 2 2 2 1 1 1 1 1 1 0 -0 -0 -1 -1 -1 -1 -1 -1 -2 -2 -2 -3 -3 -4 -4 -4 -5 -5 -5 -5 -5 -5 -3 -4 -4 -4 -4 -3 -3 -3
1 1 1 1 1 1 1 1 0 0 -0 -0 -0 -1 -1 -2 -2 -2 -2 -2 -3 -3 -3 -4 -4 -4 -5 -5 -6 -6 -6 -6 -5 -5 -5 -5 -4 -4 -4 -3 -3 -3 -4
1 1 0 0 0 0 -0 -0 -0 -1 -1 -1 -2 -2 -2 -3 -3 -3 -3 -3 -4 -4 -5 -5 -5 -5 -6 -6 -6 -6 -6 -6 -6 -5 -5 -5 -5 -4 -3 -3 -3 -4 -4
0 0 -0 -0 -1 -1 -1 -1 -1 -2 -2 -2 -3 -3 -3 -4 -4 -5 -4 -4 -5 -5 -5 -5 -6 -6 -6 -6 -6 -6 -6 -6 -6 -6 -6 -6 -6 -6 -5 -4 -4 -4 -4
Wind_Speed
8 10 10 12 13 13 11 10 10 9 9 10 11 10 9 10 14 15 16 18 17 16 14 13 12 11 11 10 10 9 9 9 9 8 8 8 8 8 8 8 8 8 8
12 10 10 11 12 14 14 12 11 9 9 9 9 11 11 11 14 17 17 19 19 18 17 15 14 13 13 12 11 10 10 9 9 8 8 8 7 7 7 7 6 6 6
15 13 9 9 12 15 15 12 11 9 7 6 6 9 9 11 13 16 18 18 19 20 19 18 16 15 15 14 13 12 11 10 9 9 8 7 7 6 5 5 5 4 4
17 14 9 8 14 14 12 7 6 6 7 6 6 5 6 8 11 15 17 18 18 18 20 20 19 18 17 16 15 14 13 11 10 9 8 8 7 6 5 4 3 2 2
17 14 9 10 13 11 8 8 8 6 7 7 7 6 5 5 7 11 12 16 18 19 20 21 21 20 19 18 17 16 14 13 11 10 9 8 7 6 5 4 3 2 1
14 13 9 10 11 7 8 7 8 7 6 7 7 7 6 6 5 6 10 14 17 19 21 20 20 21 21 20 19 18 16 15 13 11 10 9 8 7 5 4 3 3 3
11 10 6 6 7 8 10 10 8 8 8 4 4 4 4 5 6 7 7 8 12 18 20 21 20 20 19 22 21 19 18 16 15 13 12 10 9 8 6 6 5 5 5
10 9 7 7 7 8 9 9 9 6 6 6 5 3 4 4 6 8 7 9 10 13 16 20 20 20 20 20 21 21 20 18 16 14 13 11 10 9 8 7 6 6 6
9 9 8 7 7 8 8 9 9 9 8 7 6 5 5 8 5 4 7 9 9 9 9 14 19 21 22 21 21 22 20 18 17 15 14 12 11 10 9 8 8 8 8
7 8 8 7 7 7 9 9 9 9 9 8 6 6 5 4 5 4 3 5 7 9 10 9 14 19 21 20 21 21 21 19 17 16 14 13 12 11 10 9 9 9 9
5 6 6 5 6 6 8 8 8 9 9 9 7 5 7 5 4 4 6 4 3 5 6 7 8 13 18 19 20 21 22 21 19 17 15 14 13 11 11 10 9 9 10
3 5 5 3 4 4 6 7 7 8 8 9 8 7 6 5 6 7 10 7 5 3 2 2 3 6 11 14 17 20 22 22 20 18 16 14 13 12 11 10 10 10 11
3 5 5 4 4 4 4 4 5 6 7 8 9 8 9 9 5 6 7 6 5 2 1 1 1 2 6 9 13 18 21 21 19 17 14 13 12 11 9 9 11 12 13
3 5 5 4 4 4 4 4 3 4 4 5 6 6 6 6 6 6 5 5 4 3 3 4 0 1 3 7 11 15 16 18 17 15 14 13 12 9 9 11 12 13 13
4 6 6 6 6 6 6 5 3 4 3 3 3 3 3 2 2 3 3 5 6 6 6 5 3 1 3 5 9 10 11 14 15 15 13 11 10 9 10 11 12 13 14
7 7 8 8 8 8 8 7 5 6 6 6 5 5 4 3 3 2 1 1 2 4 4 1 1 1 2 4 7 8 8 11 12 11 10 10 10 10 11 12 14 14 15
8 8 8 8 9 9 8 8 8 7 8 7 7 7 6 5 4 4 3 2 1 0 2 1 2 2 2 3 4 6 6 5 4 6 7 9 9 10 12 13 14 14 15
8 8 8 9 9 9 9 9 9 9 9 9 8 8 7 6 7 5 5 4 3 3 1 2 2 1 2 2 3 3 3 3 2 4 7 8 10 11 12 13 14 14 15
8 9 9 9 9 9 10 10 9 10 10 10 9 8 8 7 7 6 6 5 4 4 3 3 2 2 2 2 3 2 2 1 1 3 6 8 9 11 11 12 13 14 14
8 9 9 9 9 9 10 9 9 10 10 10 10 9 8 8 7 6 6 6 5 5 5 4 3 3 3 3 2 2 1 1 1 2 5 7 8 10 11 12 14 14 14
9 8 8 9 8 8 9 9 9 9 9 9 10 9 9 10 10 7 6 5 5 5 4 4 3 2 2 2 1 1 1 1 2 1 2 3 5 8 11 13 14 14 15
8 8 9 9 9 9 13 14 10 8 8 8 8 7 8 9 11 12 11 9 7 5 4 3 2 2 2 1 1 1 1 1 2 1 1 4 5 6 9 12 13 13 14
7 8 8 8 8 10 14 14 14 8 7 7 6 6 6 7 8 6 9 11 10 10 7 3 2 1 0 0 1 1 1 2 3 3 2 4 3 4 8 10 13 14 13
5 6 6 7 6 8 12 12 12 8 7 6 6 5 5 5 5 6 6 6 6 6 5 3 2 1 2 2 3 3 3 2 3 3 3 3 3 3 5 10 12 9 7
4 4 4 5 6 6 10 10 9 5 5 6 5 5 4 4 7 8 5 4 5 5 6 6 4 3 4 4 2 1 0 1 3 3 1 2 3 4 4 4 6 5 7
4 4 4 4 4 4 8 9 8 3 4 4 4 5 7 6 7 7 3 2 3 3 4 4 5 6 6 6 5 1 2 2 2 3 2 1 2 3 5 3 3 7 10
Wind_Direction
199 200 204 203 205 205 206 212 219 224 231 239 239 234 223 204 197 194 194 190 185 181 181 182 182 180 177 173 166 160 155 149 143 138 132 126 120 115 110 104 97 90 84
200 197 202 205 209 210 212 215 219 223 228 229 233 230 225 209 201 195 195 194 192 188 188 190 192 191 188 185 179 174 170 165 159 155 149 142 135 128 121 113 106 97 88
202 198 202 207 211 213 214 217 223 228 233 230 232 229 221 210 203 201 199 197 197 195 194 198 199 199 197 194 190 185 182 178 173 168 163 158 152 147 139 130 119 106 93
207 203 206 210 210 210 211 211 213 218 228 228 230 230 220 211 206 206 204 203 201 201 202 204 205 204 204 202 199 195 191 188 185 182 178 175 172 169 164 156 146 130 105
211 209 214 215 210 209 210 214 213 208 219 225 227 229 225 215 208 208 209 209 207 205 204 208 208 207 207 208 206 202 198 195 195 194 192 190 189 190 190 188 188 192 225
219 217 222 220 212 211 215 214 213 211 214 216 223 230 231 228 216 210 210 212 214 212 209 209 208 210 209 210 212 209 205 202 202 203 202 201 203 206 209 214 222 240 263
226 222 227 224 217 221 223 219 216 216 221 197 199 245 264 244 235 228 215 212 215 215 213 212 209 207 209 211 213 214 211 208 207 209 210 209 211 215 222 232 242 255 270
240 232 226 229 224 228 231 226 218 220 222 190 188 204 258 277 251 232 218 219 219 214 215 215 212 208 205 206 210 212 213 213 212 213 215 214 217 224 233 243 253 263 273
260 249 242 235 231 226 232 231 222 221 228 213 199 187 201 232 249 259 233 228 222 217 218 215 214 211 208 206 206 208 208 212 216 218 219 220 224 230 239 251 261 268 276
284 272 261 252 245 239 236 235 227 224 224 224 217 223 223 200 207 261 268 240 226 223 218 216 215 213 210 207 205 203 202 206 215 222 225 226 230 237 245 255 264 273 280
317 306 287 271 262 256 250 246 238 229 225 228 217 209 226 232 222 228 261 263 254 240 230 223 215 214 212 208 204 202 201 206 213 220 228 232 236 243 255 263 269 277 284
328 336 330 311 286 275 266 258 251 243 237 235 231 216 207 208 212 218 240 243 241 245 252 243 227 215 211 207 205 201 201 206 212 218 224 232 241 251 261 271 278 284 288
337 337 337 330 319 305 290 277 263 255 247 243 240 236 230 231 220 217 232 242 239 240 272 258 242 198 197 193 198 198 202 206 210 214 220 231 243 254 264 272 277 282 284
339 340 346 349 346 343 337 323 303 285 276 265 259 251 247 245 233 224 224 226 242 242 238 238 248 179 163 173 185 185 193 199 204 211 222 236 249 261 269 270 276 280 284
360 3 8 14 13 10 6 2 5 358 353 335 311 288 271 280 269 249 232 220 227 242 239 210 191 171 150 150 170 172 177 193 205 216 227 236 246 260 267 271 275 278 280
22 22 25 27 26 22 20 27 28 24 35 29 23 33 31 15 22 17 351 279 241 238 246 153 146 104 156 157 170 157 171 192 210 218 227 239 250 258 266 271 274 275 277
30 33 33 35 34 30 26 36 39 39 47 43 39 46 46 41 44 37 36 40 29 272 228 105 74 81 127 148 148 141 154 171 200 226 242 252 260 267 270 272 273 274 276
38 38 39 42 40 37 35 41 44 46 50 49 44 50 44 44 46 41 42 42 38 29 95 121 88 85 94 133 119 121 135 161 191 245 261 266 270 273 273 273 274 275 275
44 43 45 47 45 43 43 45 51 54 56 54 50 51 47 52 52 46 48 46 40 39 49 91 80 65 71 96 96 94 110 94 216 259 272 278 281 280 280 281 281 280 279
50 48 49 50 52 51 50 51 57 59 61 58 54 52 51 54 56 53 51 45 46 52 56 72 73 68 69 73 82 90 77 50 333 308 292 289 289 290 290 288 286 284 282
55 52 52 51 52 57 59 60 59 62 61 59 53 48 50 57 63 63 62 51 50 52 54 60 58 58 56 59 63 59 66 16 325 329 327 303 299 292 288 286 284 280 276
56 55 53 53 54 61 67 69 70 60 58 56 52 44 43 44 49 54 59 56 56 58 55 54 48 57 48 49 66 68 73 33 319 310 319 283 269 269 272 273 276 277 276
59 56 52 52 53 60 65 68 70 66 59 53 47 41 42 39 44 40 42 42 39 44 51 84 87 70 105 187 133 95 198 216 244 264 296 284 272 271 273 278 287 286 282
68 62 54 48 47 56 66 69 71 59 54 47 43 45 43 17 29 53 45 33 23 18 29 59 125 196 211 211 194 195 210 237 267 264 221 267 290 277 284 290 294 288 286
78 70 62 52 46 40 63 70 71 56 51 38 27 33 40 15 21 36 49 33 17 359 14 23 16 351 331 314 271 151 182 327 305 286 230 245 294 302 293 291 303 315 320
101 90 70 52 44 27 56 67 72 65 53 34 18 8 10 8 6 14 51 33 354 328 340 352 357 356 357 353 357 80 172 184 246 285 284 278 301 335 318 292 277 283 289
Height
1561 1562 1562 1563 1563 1564 1564 1565 1565 1565 1565 1565 1566 1565 1565 1565 1564 1564 1565 1564 1564 1563 1563 1562 1561 1560 1560 1559 1558 1558 1558 1557 1557 1557 1557 1557 1557 1557 1557 1556 1556 1556 1556
1558 1559 1559 1560 1561 1561 1562 1562 1563 1563 1563 1563 1563 1563 1563 1563 1562 1562 1562 1562 1562 1561 1561 1560 1559 1559 1558 1558 1557 1557 1557 1556 1556 1556 1556 1556 1556 1556 1556 1556 1555 1555 1555
1556 1556 1556 1557 1558 1559 1559 1559 1559 1559 1559 1559 1559 1560 1560 1560 1560 1559 1559 1559 1559 1559 1558 1558 1557 1557 1556 1556 1555 1555 1555 1555 1555 1555 1555 1555 1555 1555 1555 1555 1555 1554 1554
1553 1553 1553 1554 1555 1555 1555 1555 1556 1556 1556 1556 1556 1556 1556 1556 1556 1556 1556 1556 1556 1556 1556 1555 1555 1555 1554 1554 1553 1553 1553 1553 1553 1553 1553 1553 1554 1554 1554 1553 1553 1553 1553
1550 1550 1550 1551 1551 1551 1551 1551 1551 1552 1552 1552 1552 1552 1552 1552 1552 1552 1552 1552 1552 1552 1552 1552 1552 1551 1551 1551 1551 1551 1550 1551 1551 1551 1551 1551 1551 1551 1552 1551 1551 1551 1551
1546 1547 1547 1547 1547 1547 1547 1547 1547 1547 1547 1548 1548 1548 1548 1548 1548 1547 1547 1547 1547 1547 1547 1548 1548 1548 1548 1548 1548 1548 1547 1548 1548 1548 1548 1548 1549 1549 1549 1549 1549 1549 1549
1542 1542 1542 1542 1542 1542 1542 1543 1543 1543 1542 1543 1543 1542 1542 1542 1541 1541 1541 1541 1541 1541 1541 1542 1542 1543 1543 1543 1544 1544 1544 1544 1544 1545 1545 1545 1545 1546 1546 1546 1546 1546 1546
1537 1537 1537 1537 1537 1537 1537 1537 1537 1537 1537 1538 1537 1536 1535 1534 1533 1534 1534 1534 1534 1535 1534 1535 1536 1536 1537 1538 1538 1539 1539 1540 1540 1540 1541 1541 1542 1542 1542 1543 1543 1543 1543
1531 1531 1531 1531 1531 1531 1530 1531 1531 1531 1530 1530 1531 1531 1529 1525 1526 1526 1526 1526 1526 1526 1527 1527 1528 1529 1530 1531 1532 1533 1534 1534 1535 1536 1536 1537 1537 1538 1538 1538 1539 1539 1539
1524 1525 1524 1524 1524 1524 1524 1524 1524 1524 1524 1523 1523 1523 1523 1522 1521 1518 1518 1519 1519 1519 1519 1519 1520 1520 1522 1523 1524 1526 1527 1528 1529 1530 1531 1532 1532 1533 1533 1534 1534 1534 1534
1518 1518 1517 1517 1517 1517 1517 1517 1517 1517 1517 1516 1516 1516 1515 1515 1514 1514 1511 1511 1511 1511 1511 1511 1512 1512 1513 1514 1515 1517 1518 1520 1521 1523 1525 1526 1527 1528 1528 1528 1529 1529 1528
1512 1512 1511 1511 1510 1510 1510 1510 1510 1510 1510 1510 1510 1509 1508 1508 1507 1507 1505 1503 1503 1503 1503 1503 1503 1503 1504 1505 1507 1508 1510 1511 1513 1515 1517 1519 1520 1521 1521 1522 1522 1522 1522
1506 1506 1505 1504 1504 1504 1503 1503 1503 1503 1503 1503 1503 1502 1502 1501 1501 1500 1499 1497 1496 1495 1495 1495 1495 1495 1496 1497 1498 1500 1502 1504 1505 1507 1510 1511 1513 1513 1513 1514 1515 1515 1515
1501 1500 1500 1499 1498 1498 1497 1497 1497 1497 1496 1496 1496 1495 1495 1494 1494 1493 1493 1492 1489 1487 1487 1487 1487 1487 1488 1489 1490 1492 1493 1496 1498 1501 1503 1504 1506 1506 1506 1506 1507 1508 1508
1496 1496 1495 1494 1493 1493 1492 1491 1491 1490 1490 1489 1489 1489 1488 1488 1487 1487 1487 1486 1485 1481 1479 1480 1480 1480 1480 1481 1483 1485 1487 1489 1492 1494 1496 1497 1498 1499 1499 1499 1500 1500 1500
1493 1492 1491 1490 1489 1489 1488 1487 1486 1485 1485 1484 1483 1483 1482 1482 1481 1481 1480 1480 1479 1478 1476 1475 1475 1474 1475 1476 1477 1479 1481 1484 1486 1488 1490 1491 1492 1492 1492 1493 1493 1493 1493
1490 1489 1488 1487 1486 1485 1484 1483 1482 1481 1480 1479 1478 1478 1477 1476 1476 1475 1475 1474 1473 1473 1472 1471 1470 1470 1471 1472 1473 1475 1477 1478 1480 1482 1483 1485 1485 1485 1486 1486 1486 1486 1486
1488 1487 1486 1485 1483 1482 1481 1480 1478 1477 1476 1476 1475 1474 1473 1472 1472 1471 1470 1469 1469 1468 1468 1467 1467 1467 1467 1469 1470 1471 1473 1474 1476 1477 1478 1479 1479 1480 1480 1480 1480 1479 1479
1486 1485 1484 1482 1481 1480 1478 1477 1476 1475 1474 1473 1472 1471 1470 1470 1469 1468 1467 1466 1466 1465 1465 1465 1464 1465 1465 1466 1467 1468 1469 1470 1471 1472 1473 1473 1473 1474 1474 1473 1473 1473 1472
1485 1484 1482 1481 1479 1478 1477 1476 1475 1473 1472 1471 1470 1470 1469 1468 1467 1466 1466 1465 1464 1464 1463 1463 1463 1463 1463 1464 1465 1466 1466 1467 1467 1468 1468 1468 1468 1468 1468 1467 1467 1467 1466
1484 1483 1482 1480 1479 1478 1476 1475 1474 1473 1472 1471 1470 1469 1468 1468 1467 1466 1465 1464 1463 1463 1462 1462 1462 1462 1462 1462 1463 1463 1463 1463 1463 1464 1463 1463 1463 1463 1463 1462 1461 1461 1461
1484 1483 1482 1481 1479 1478 1477 1476 1475 1474 1473 1472 1471 1470 1469 1468 1467 1466 1465 1464 1463 1462 1461 1461 1461 1461 1460 1461 1461 1461 1461 1460 1460 1461 1460 1460 1459 1458 1458 1457 1456 1456 1456
1484 1483 1482 1481 1480 1479 1478 1477 1476 1475 1474 1472 1471 1470 1469 1467 1466 1465 1464 1463 1462 1461 1460 1460 1459 1459 1459 1459 1459 1458 1458 1458 1458 1457 1456 1454 1455 1454 1453 1452 1451 1451 1451
1485 1484 1483 1482 1481 1480 1479 1478 1476 1475 1474 1472 1471 1470 1468 1467 1465 1464 1463 1462 1460 1460 1459 1458 1458 1457 1457 1457 1457 1457 1456 1455 1455 1454 1453 1451 1450 1450 1449 1447 1447 1446 1446
1485 1485 1484 1483 1482 1481 1479 1478 1477 1475 1474 1472 1471 1469 1468 1466 1465 1463 1462 1460 1459 1458 1458 1457 1456 1456 1455 1455 1455 1454 1453 1452 1451 1451 1450 1448 1446 1444 1443 1442 1442 1442 1441
1486 1485 1484 1483 1482 1481 1479 1478 1476 1475 1473 1472 1470 1468 1467 1465 1463 1462 1461 1459 1458 1457 1456 1456 1455 1454 1453 1453 1452 1452 1451 1450 1449 1447 1446 1445 1443 1441 1438 1437 1438 1438 1437